Regional Weather Roundup
Issued by NWS

Home | Current Version | Previous Version | Graphics & Text | Print | Product List | Glossary On
Versions: 1 2 3 4 5 6 7 8 9 10 11 12 13 14 15 16 17 18 19 20 21 22 23 24 25 26 27 28
000
ASUS45 KCYS 050810
RWRWY

WYOMING REGIONAL WEATHER ROUNDUP
NATIONAL WEATHER SERVICE CHEYENNE WY
200 AM MDT THU MAY 05 2016

NOTE:  "FAIR" INDICATES FEW OR NO CLOUDS BELOW 12,000 FEET
WITH NO SIGNIFICANT WEATHER AND/OR OBSTRUCTIONS TO VISIBILITY.

WYZ001-050900-
YELLOWSTONE NATIONAL PARK

CITY           SKY/WX    TMP DP  RH WIND       PRES   REMARKS
LK YELLOWSTONE   N/A     35  29  78 CALM      30.21R
W YELLOWSTONE  NOT AVBL

$$
WYZ002>013-054>058-071-098>099-050900-
NORTHERN WYOMING

CITY           SKY/WX    TMP DP  RH WIND       PRES   REMARKS
JACKSON        FAIR      43  30  61 N5        30.14R
CODY           FAIR      57  28  33 SW12      30.00F
GREYBULL       FAIR      59  29  31 CALM      29.95R
WORLAND        FAIR      47  39  74 SE5       29.96S
SHERIDAN       FAIR      49  38  65 S3        29.95F
BUFFALO        FAIR      61  27  27 W7        30.01F
GILLETTE       FAIR      55  41  59 S16       29.98F
HULETT         FAIR      61  37  41 SW5       30.01F
NEWCASTLE      FAIR      59  36  41 E8        30.06S

$$
WYZ014>020-022>026-101>103-050900-
CENTRAL WYOMING

CITY           SKY/WX    TMP DP  RH WIND       PRES   REMARKS
BIG PINEY      FAIR      43  29  57 CALM      30.17S
PINEDALE       FAIR      41  32  70 CALM      30.18S
DUBOIS         FAIR      43  23  45 W12       30.15F
LANDER         FAIR      64  26  23 SW17      30.03S
RIVERTON       FAIR      53  31  42 N6        30.05S
CASPER         FAIR      44  33  65 W5        30.07S
DOUGLAS        FAIR      47  40  76 E3        30.07S

$$
WYZ021-027>030-104>119-050900-
SOUTHERN WYOMING

CITY           SKY/WX    TMP DP  RH WIND       PRES   REMARKS
EVANSTON       FAIR      51  27  39 E6        30.16S
KEMMERER         N/A     43  32  65 N10       30.18S
FORT BRIDGER   SUNNY     52  28  40 SW6       30.19S
ROCK SPRINGS   FAIR      51  27  39 S6        30.15F
DIXON          FAIR      45  30  55 CALM      30.21S
RAWLINS        FAIR      44  29  55 CALM      30.17S
SARATOGA       FAIR      39  28  65 SE9       30.21S WCI  33
LARAMIE        FAIR      40  32  73 SW8       30.20F WCI  34
CHEYENNE       FAIR      51  34  52 SW8       30.16F
TORRINGTON     FAIR      49  41  74 E6        30.07F
PINE BLUFFS    FAIR      43  37  81 SW3       30.14F

$$




USA.gov is the U.S. government's official web portal to all federal, state and local government web resources and services.